Home   Weather   Crawley   Past weeks

Flag for United Kingdom Past Weather in Crawley, England, United Kingdom — Yesterday and Last 2 Weeks

Now
59 °F

Clear.


Feels Like: 59 °F
Forecast: 56 / 66 °F
Wind: 5 mph from South

Location: London / Gatwick Airport

Current Time: Jul 26, 2017 at 5:58:41 am

Latest Report: Jul 26, 2017 at 5:20 am


Visibility: 4 mi

Pressure: 29.83 "Hg

Humidity: 94%

Dew Point: 57 °F

Location of CrawleyLocation

Past Weather in Crawley — Graph

°F

Crawley Temperature Yesterday

Maximum temperature yesterday: 72 °F (at 6:20 pm)
Minimum temperature yesterday: 57 °F (at 12:50 am)
Average temperature yesterday: 63 °F

High & Low Weather Summary for the Past Weeks

 TemperatureHumidityPressure
High81 °F (Jul 18, 2:20 pm)100% (Jul 11, 7:50 pm)30.24 "Hg (Jul 11, 7:50 pm)
Low50 °F (Jul 13, 4:50 am)40% (Jul 20, 4:50 pm)29.65 "Hg (Jul 12, 2:20 am)
Average63 °F78%29.96 "Hg
* Reported Jul 11 4:20 am — Jul 26 4:50 am, Crawley. Weather by CustomWeather, © 2017

Note: Actual official high and low records may vary slightly from our data, if they occured in-between our weather recording intervals... More about our weather records

Advertising

Crawley Weather History for the Previous 24 Hours

Scroll right to see more
 ConditionsComfort  
Time TempWeatherWind HumidityBarometerVisibility
4:50 am
Wed, Jul 26
57 °FFog.3 mph100%29.83 "Hg4 mi
4:20 am59 °FClear.3 mph94%29.83 "Hg4 mi
3:50 am59 °FClear.3 mph94%29.86 "Hg4 mi
3:20 am57 °FClear.2 mph100%29.86 "Hg4 mi
2:50 am59 °FClear.3 mph94%29.86 "Hg4 mi
2:20 am59 °FClear.2 mph94%29.86 "Hg4 mi
1:50 am59 °FClear.2 mph100%29.89 "Hg4 mi
1:20 am59 °FPassing clouds.3 mph100%29.89 "Hg5 mi
12:50 am61 °FClear.3 mph94%29.89 "Hg6 mi
12:20 am61 °FPassing clouds.2 mph94%29.92 "Hg4 mi
11:50 pm
Tue, Jul 25
61 °FPassing clouds.2 mph94%29.92 "HgN/A
11:20 pm61 °FPassing clouds.3 mph94%29.92 "HgN/A
10:50 pm63 °FClear.3 mph88%29.92 "Hg10 mi
10:20 pm63 °FPassing clouds.5 mph88%29.95 "HgN/A
9:50 pm64 °FPassing clouds.6 mph88%29.95 "HgN/A
9:20 pm66 °FPassing clouds.6 mph78%29.92 "HgN/A
8:50 pm68 °FPassing clouds.3 mph64%29.92 "HgN/A
8:20 pm68 °FPassing clouds.3 mph64%29.92 "HgN/A
7:50 pm68 °FSunny.3 mph64%29.92 "Hg10 mi
7:20 pm70 °FSunny.3 mph60%29.92 "Hg10 mi
6:50 pm70 °FSunny.6 mph60%29.95 "Hg10 mi
6:20 pm72 °FPassing clouds.5 mph57%29.95 "HgN/A
5:50 pm70 °FScattered clouds.8 mph60%29.95 "HgN/A
5:20 pm70 °FScattered clouds.10 mph60%29.95 "HgN/A
4:50 pm70 °FScattered clouds.10 mph60%29.98 "HgN/A
4:20 pm70 °FScattered clouds.8 mph60%29.98 "HgN/A
3:50 pm70 °FPassing clouds.9 mph64%29.98 "HgN/A
3:20 pm70 °FScattered clouds.9 mph60%29.98 "HgN/A
2:50 pm68 °FPartly sunny.12 mph69%29.98 "HgN/A
2:20 pm70 °FScattered clouds.12 mph64%29.98 "HgN/A
1:50 pm70 °FScattered clouds.8 mph60%29.98 "HgN/A
1:20 pm68 °FScattered clouds.7 mph64%30.01 "HgN/A
12:50 pm68 °FScattered clouds.8 mph60%30.01 "HgN/A
12:20 pm66 °FScattered clouds.5 mph68%30.01 "HgN/A
11:50 am66 °FScattered clouds.7 mph68%30.01 "HgN/A
11:20 am64 °FScattered clouds.7 mph73%30.01 "HgN/A
10:50 am64 °FScattered clouds.6 mph78%30.01 "HgN/A
10:20 am61 °FPartly sunny.7 mph83%30.01 "HgN/A
9:50 am61 °FPartly sunny.9 mph83%30.04 "HgN/A
9:20 am59 °FPartly sunny.8 mph88%30.04 "HgN/A
8:50 am59 °FPartly sunny.9 mph88%30.04 "HgN/A
8:20 am57 °FPartly sunny.10 mph88%30.04 "HgN/A
7:50 am57 °FPartly sunny.10 mph88%30.01 "HgN/A
7:20 am57 °FPartly sunny.10 mph88%30.01 "HgN/A
6:50 am57 °FScattered clouds.8 mph88%30.01 "HgN/A
6:20 am57 °FScattered clouds.8 mph88%30.01 "HgN/A
5:50 am57 °FPartly sunny.6 mph88%30.01 "HgN/A
5:20 am57 °FScattered clouds.7 mph88%30.01 "HgN/A
Weather by CustomWeather, © 2017

See weather overviewHow to use our weather pages